Time,TemperatureF,DewpointF,PressureIn,WindDirection,WindDirectionDegrees,WindSpeedMPH,WindSpeedGustMPH,Humidity,HourlyPrecipIn,Conditions,Clouds,dailyrainin,SoftwareType,DateUTC
2013-10-12 00:02:00,41.0,33.0,-100.00,ESE,104,18.0,40.0,72,-99.99,,,-99.99,,2013-10-12 08:02:00,
2013-10-12 00:12:00,41.0,33.0,-100.00,ESE,104,18.0,40.0,72,-99.99,,,-99.99,,2013-10-12 08:12:00,
2013-10-12 00:42:00,40.0,33.0,-100.00,SE,137,17.0,39.0,77,0.00,,,-99.99,,2013-10-12 08:42:00,
2013-10-12 00:52:00,40.0,33.0,-100.00,SE,137,17.0,39.0,77,0.00,,,-99.99,,2013-10-12 08:52:00,
2013-10-12 01:02:00,40.0,33.0,-100.00,SE,137,17.0,39.0,77,0.00,,,-99.99,,2013-10-12 09:02:00,
2013-10-12 01:43:00,40.0,33.0,-100.00,ESE,113,14.0,39.0,76,0.00,,,-99.99,,2013-10-12 09:43:00,
2013-10-12 01:54:00,40.0,33.0,-100.00,ESE,113,14.0,39.0,76,0.00,,,-99.99,,2013-10-12 09:54:00,
2013-10-12 02:03:00,40.0,33.0,-100.00,ESE,113,14.0,39.0,76,0.00,,,-99.99,,2013-10-12 10:03:00,
2013-10-12 02:42:00,40.0,33.0,-100.00,ESE,108,19.0,41.0,77,0.00,,,-99.99,,2013-10-12 10:42:00,
2013-10-12 02:52:00,40.0,33.0,-100.00,ESE,108,19.0,41.0,77,0.00,,,-99.99,,2013-10-12 10:52:00,
2013-10-12 03:02:00,40.0,33.0,-100.00,ESE,108,19.0,41.0,77,0.00,,,-99.99,,2013-10-12 11:02:00,
2013-10-12 03:42:00,40.0,33.0,-100.00,ESE,110,18.0,36.0,75,0.00,,,-99.99,,2013-10-12 11:42:00,
2013-10-12 03:52:00,40.0,33.0,-100.00,ESE,110,18.0,36.0,75,0.00,,,-99.99,,2013-10-12 11:52:00,
2013-10-12 04:01:00,40.0,33.0,-100.00,ESE,110,18.0,36.0,75,0.00,,,-99.99,,2013-10-12 12:01:00,
2013-10-12 04:22:00,40.0,33.0,-100.00,ESE,119,19.0,47.0,76,-99.99,,,-99.99,,2013-10-12 12:22:00,
2013-10-12 04:42:00,40.0,33.0,-100.00,ESE,109,16.0,40.0,76,0.00,,,-99.99,,2013-10-12 12:42:00,
2013-10-12 04:52:00,40.0,33.0,-100.00,ESE,109,16.0,40.0,76,0.00,,,-99.99,,2013-10-12 12:52:00,
2013-10-12 05:42:00,40.0,33.0,-100.00,ESE,114,13.0,43.0,76,0.00,,,-99.99,,2013-10-12 13:42:00,
2013-10-12 05:52:00,40.0,33.0,-100.00,ESE,114,13.0,43.0,76,0.00,,,-99.99,,2013-10-12 13:52:00,
2013-10-12 06:02:00,40.0,33.0,-100.00,ESE,114,13.0,43.0,76,0.00,,,-99.99,,2013-10-12 14:02:00,
2013-10-12 06:42:00,40.0,33.0,-100.00,East,99,18.0,41.0,77,0.00,,,-99.99,,2013-10-12 14:42:00,
2013-10-12 06:52:00,40.0,33.0,-100.00,East,99,18.0,41.0,77,0.00,,,-99.99,,2013-10-12 14:52:00,
2013-10-12 07:02:00,40.0,33.0,-100.00,East,99,18.0,41.0,77,0.00,,,-99.99,,2013-10-12 15:02:00,
2013-10-12 07:44:00,40.0,34.0,-100.00,SE,127,18.0,40.0,78,0.00,,,-99.99,,2013-10-12 15:44:00,
2013-10-12 07:53:00,40.0,34.0,-100.00,SE,127,18.0,40.0,78,0.00,,,-99.99,,2013-10-12 15:53:00,
2013-10-12 08:03:00,40.0,34.0,-100.00,SE,127,18.0,40.0,78,0.00,,,-99.99,,2013-10-12 16:03:00,
2013-10-12 08:43:00,40.0,34.0,-100.00,ESE,108,16.0,39.0,78,0.00,,,-99.99,,2013-10-12 16:43:00,
2013-10-12 08:53:00,40.0,34.0,-100.00,ESE,108,16.0,39.0,78,0.00,,,-99.99,,2013-10-12 16:53:00,
2013-10-12 09:03:00,40.0,34.0,-100.00,ESE,108,16.0,39.0,78,0.00,,,-99.99,,2013-10-12 17:03:00,
2013-10-12 09:42:00,41.0,32.0,-100.00,ESE,110,18.0,41.0,70,0.00,,,-99.99,,2013-10-12 17:42:00,
2013-10-12 09:53:00,41.0,32.0,-100.00,ESE,110,18.0,41.0,70,0.00,,,-99.99,,2013-10-12 17:53:00,
2013-10-12 10:02:00,41.0,32.0,-100.00,ESE,110,18.0,41.0,70,0.00,,,-99.99,,2013-10-12 18:02:00,
2013-10-12 10:42:00,42.0,32.0,-100.00,SE,124,23.0,50.0,67,0.00,,,-99.99,,2013-10-12 18:42:00,
2013-10-12 10:52:00,42.0,32.0,-100.00,SE,124,23.0,50.0,67,0.00,,,-99.99,,2013-10-12 18:52:00,
2013-10-12 11:01:00,42.0,32.0,-100.00,SE,124,23.0,50.0,67,0.00,,,-99.99,,2013-10-12 19:01:00,
2013-10-12 11:42:00,42.0,32.0,-100.00,ESE,121,19.0,49.0,67,0.00,,,-99.99,,2013-10-12 19:42:00,
2013-10-12 11:52:00,43.0,32.0,-100.00,ESE,118,20.0,50.0,65,-99.99,,,-99.99,,2013-10-12 19:52:00,
2013-10-12 12:12:00,44.0,32.0,-100.00,SE,139,23.0,49.0,62,-99.99,,,-99.99,,2013-10-12 20:12:00,
2013-10-12 12:22:00,44.0,32.0,-100.00,SE,136,19.0,51.0,63,-99.99,,,-99.99,,2013-10-12 20:22:00,
2013-10-12 12:42:00,43.0,32.0,-100.00,SE,135,18.0,49.0,64,0.00,,,-99.99,,2013-10-12 20:42:00,
2013-10-12 12:52:00,43.0,32.0,-100.00,SE,135,18.0,49.0,64,0.00,,,-99.99,,2013-10-12 20:52:00,
2013-10-12 13:02:00,43.0,32.0,-100.00,SE,135,18.0,49.0,64,0.00,,,-99.99,,2013-10-12 21:02:00,
2013-10-12 13:22:00,44.0,32.0,-100.00,SE,136,23.0,57.0,62,-99.99,,,-99.99,,2013-10-12 21:22:00,
2013-10-12 13:43:00,44.0,32.0,-100.00,SE,140,18.0,47.0,62,0.00,,,-99.99,,2013-10-12 21:43:00,
2013-10-12 13:54:00,44.0,32.0,-100.00,SE,140,18.0,47.0,62,0.00,,,-99.99,,2013-10-12 21:54:00,
2013-10-12 14:04:00,44.0,32.0,-100.00,SE,140,18.0,47.0,62,0.00,,,-99.99,,2013-10-12 22:04:00,
2013-10-12 15:12:00,45.0,32.0,-100.00,SSW,199,3.0,18.0,61,-99.99,,,-99.99,,2013-10-12 23:12:00,
2013-10-12 15:22:00,45.0,32.0,-100.00,SSW,199,3.0,18.0,61,-99.99,,,-99.99,,2013-10-12 23:22:00,
2013-10-12 15:33:00,45.0,32.0,-100.00,SSW,199,3.0,18.0,61,-99.99,,,-99.99,,2013-10-12 23:33:00,
2013-10-12 15:52:00,45.0,33.0,-100.00,SE,141,0.0,13.0,62,-99.99,,,-99.99,,2013-10-12 23:52:00,
2013-10-12 16:01:00,45.0,33.0,-100.00,SE,141,0.0,13.0,62,-99.99,,,-99.99,,2013-10-13 00:01:00,
2013-10-12 16:11:00,45.0,33.0,-100.00,SE,141,0.0,13.0,62,-99.99,,,-99.99,,2013-10-13 00:11:00,
2013-10-12 16:21:00,45.0,33.0,-100.00,SE,141,0.0,13.0,62,-99.99,,,-99.99,,2013-10-13 00:21:00,
2013-10-12 17:21:00,44.0,33.0,-100.00,NE,37,6.0,16.0,64,-99.99,,,-99.99,,2013-10-13 01:21:00,
2013-10-12 17:42:00,43.0,32.0,-100.00,WNW,285,3.0,12.0,64,0.00,,,-99.99,,2013-10-13 01:42:00,
2013-10-12 17:52:00,43.0,31.0,-100.00,SSE,166,4.0,21.0,63,-99.99,,,-99.99,,2013-10-13 01:52:00,
2013-10-12 18:11:00,43.0,30.0,-100.00,East,100,5.0,28.0,61,-99.99,,,-99.99,,2013-10-13 02:11:00,
2013-10-12 18:21:00,43.0,31.0,-100.00,ESE,114,8.0,23.0,63,-99.99,,,-99.99,,2013-10-13 02:21:00,
2013-10-12 18:22:00,43.0,30.0,-100.00,East,100,5.0,28.0,61,-99.99,,,-99.99,,2013-10-13 02:22:00,
2013-10-12 18:43:00,43.0,32.0,-100.00,South,191,5.0,13.0,65,0.00,,,-99.99,,2013-10-13 02:43:00,
2013-10-12 18:52:00,43.0,31.0,-100.00,ESE,114,8.0,23.0,63,-99.99,,,-99.99,,2013-10-13 02:52:00,
2013-10-12 19:02:00,43.0,31.0,-100.00,ESE,114,8.0,23.0,63,-99.99,,,-99.99,,2013-10-13 03:02:00,
2013-10-12 19:11:00,43.0,31.0,-100.00,ESE,114,8.0,23.0,63,-99.99,,,-99.99,,2013-10-13 03:11:00,
2013-10-12 19:45:00,43.0,31.0,-100.00,East,91,1.0,12.0,63,0.00,,,-99.99,,2013-10-13 03:45:00,
2013-10-12 19:54:00,43.0,31.0,-100.00,East,91,1.0,12.0,63,0.00,,,-99.99,,2013-10-13 03:54:00,
2013-10-12 20:02:00,-999.0,-99.9,-100.00,NNE,20,2.0,23.0,-999,-99.99,,,-99.99,,2013-10-13 04:02:00,
2013-10-12 20:13:00,42.0,31.0,-100.00,NNE,20,2.0,23.0,65,-99.99,,,-99.99,,2013-10-13 04:13:00,
2013-10-12 20:23:00,42.0,33.0,-100.00,South,190,6.0,17.0,70,-99.99,,,-99.99,,2013-10-13 04:23:00,
2013-10-12 20:33:00,42.0,33.0,-100.00,South,190,6.0,17.0,70,-99.99,,,-99.99,,2013-10-13 04:33:00,
2013-10-12 20:43:00,42.0,33.0,-100.00,South,190,6.0,17.0,70,-99.99,,,-99.99,,2013-10-13 04:43:00,
2013-10-12 20:54:00,41.0,32.0,-100.00,WNW,298,8.0,21.0,69,-99.99,,,-99.99,,2013-10-13 04:54:00,
2013-10-12 21:12:00,42.0,30.0,-100.00,South,186,3.0,12.0,62,-99.99,,,-99.99,,2013-10-13 05:12:00,
2013-10-12 21:23:00,42.0,30.0,-100.00,South,186,3.0,12.0,62,-99.99,,,-99.99,,2013-10-13 05:23:00,
2013-10-12 21:34:00,42.0,30.0,-100.00,South,186,3.0,12.0,62,-99.99,,,-99.99,,2013-10-13 05:34:00,
2013-10-12 21:52:00,43.0,29.0,-100.00,NE,56,5.0,13.0,58,-99.99,,,-99.99,,2013-10-13 05:52:00,
2013-10-12 22:12:00,43.0,29.0,-100.00,ENE,60,12.0,28.0,57,-99.99,,,-99.99,,2013-10-13 06:12:00,
2013-10-12 22:21:00,43.0,29.0,-100.00,ENE,60,12.0,28.0,57,-99.99,,,-99.99,,2013-10-13 06:21:00,
2013-10-12 22:42:00,41.0,32.0,-100.00,SSW,193,4.0,8.0,69,0.00,,,-99.99,,2013-10-13 06:42:00,
2013-10-12 22:52:00,39.0,32.0,-100.00,North,6,3.0,13.0,75,-99.99,,,-99.99,,2013-10-13 06:52:00,
2013-10-12 23:02:00,39.0,32.0,-100.00,North,6,3.0,13.0,75,-99.99,,,-99.99,,2013-10-13 07:02:00,
2013-10-12 23:11:00,39.0,32.0,-100.00,North,6,3.0,13.0,75,-99.99,,,-99.99,,2013-10-13 07:11:00,
2013-10-12 23:21:00,39.0,32.0,-100.00,North,6,3.0,13.0,75,-99.99,,,-99.99,,2013-10-13 07:21:00,
2013-10-12 23:42:00,39.0,33.0,-100.00,SSE,151,6.0,18.0,80,0.00,,,-99.99,,2013-10-13 07:42:00,
2013-10-12 23:52:00,39.0,33.0,-100.00,SSE,151,6.0,18.0,80,0.00,,,-99.99,,2013-10-13 07:52:00,